New Castle, PA

3:53 PM EDT on September 24, 2017 (GMT -0400)
New Castle Municipal

Weather History for KUCP - May, 2013

Change the Weather History Date:

Wednesday, May 15, 2013

  Actual Average Record
Temperature  
Mean Temperature 64 °F -  
Max Temperature 83 °F 72 °F 91 °F (1962)
Min Temperature 46 °F 44 °F 30 °F (1969)
Growing Degree Days 14 (Base 50)    
Moisture  
Dew Point 50 °F    
Average Humidity 57    
Maximum Humidity 74    
Minimum Humidity 38    
Precipitation  
Precipitation 0.00 in - - ()
Sea Level Pressure  
Sea Level Pressure 29.82 in    
Wind  
Wind Speed 5 mph (WSW)    
Max Wind Speed 18 mph    
Max Gust Speed 26 mph    
Visibility 10 miles    
Events Rain    
Averages and records for this station are not official NWS values.
T = Trace of Precipitation, MM = Missing Value Source: NWS Daily Summary

Daily Weather History Graph

Daily Weather History Graph

Search for Another Location

Airport or City:

Trip Planner

Search our weather history database for the weather conditions in past years. The results will help you decide how hot, cold, wet, or windy it might be!

Date:

Astronomy

May. 15, 2013 Rise Set
Actual Time 6:03 AM EDT 8:33 PM EDT
Civil Twilight 5:32 AM EDT 9:04 PM EDT
Nautical Twilight 4:53 AM EDT 9:43 PM EDT
Astronomical Twilight 4:09 AM EDT 10:27 PM EDT
Moon 10:38 AM EDT (5/15) 12:18 AM EDT (5/15)
Length of Visible Light 15h 32m
Length of Day
14h 29m
Waxing Crescent, 26% of the Moon is Illuminated
May 15
Waxing Crescent
May 18
First Quarter
May 25
Full
May 31
Last Quarter
Jun 8
New

Hourly Weather History & Observations

Time (EDT) Temp. Heat Index Dew Point Humidity Pressure Visibility Wind Dir Wind Speed Gust Speed Precip Events Conditions
12:56 AM 47.8 °F - 36.0 °F 63% 29.94 in 10.0 mi Calm Calm - N/A   Clear
1:56 AM 47.8 °F - 36.0 °F 63% 29.91 in 10.0 mi Calm Calm - N/A   Scattered Clouds
2:56 AM 46.9 °F - 37.9 °F 71% 29.91 in 10.0 mi Calm Calm - N/A   Clear
3:56 AM 50.9 °F - 38.8 °F 63% 29.90 in 10.0 mi Calm Calm - N/A   Partly Cloudy
4:56 AM 51.8 °F - 39.2 °F 62% 29.83 in 10.0 mi Calm Calm - N/A   Clear
5:56 AM 54.0 °F - 41.0 °F 62% 29.84 in 10.0 mi Variable 5.8 mph - N/A   Clear
6:56 AM 54.0 °F - 45.9 °F 74% 29.85 in 10.0 mi Variable 4.6 mph - 0.00 in   Clear
7:56 AM 59.9 °F - 50.9 °F 72% 29.80 in 6.0 mi SSW 9.2 mph - N/A   Haze
8:10 AM 60.8 °F - 51.8 °F 72% 29.78 in 2.0 mi SSW 5.8 mph - N/A   Haze
8:21 AM 62.6 °F - 51.8 °F 68% 29.78 in 10.0 mi Calm Calm - N/A   Partly Cloudy
8:56 AM 63.9 °F - 54.0 °F 70% 29.81 in 10.0 mi SSW 6.9 mph - N/A   Clear
9:56 AM 68.0 °F - 55.9 °F 65% 29.80 in 10.0 mi SSW 8.1 mph - N/A   Partly Cloudy
10:56 AM 70.9 °F - 55.9 °F 59% 29.81 in 10.0 mi SW 12.7 mph 19.6 mph N/A   Partly Cloudy
11:56 AM 72.9 °F - 57.9 °F 59% 29.81 in 10.0 mi WSW 11.5 mph - 0.00 in   Mostly Cloudy
12:56 PM 77.0 °F - 57.9 °F 52% 29.80 in 10.0 mi WSW 16.1 mph 24.2 mph N/A   Scattered Clouds
1:56 PM 80.6 °F 81.1 °F 59.0 °F 48% 29.76 in 10.0 mi WSW 12.7 mph 17.3 mph N/A Rain Light Rain
2:56 PM 82.9 °F 83.2 °F 59.9 °F 46% 29.79 in 10.0 mi West 10.4 mph 24.2 mph 0.00 in   Partly Cloudy
3:56 PM 82.9 °F 82.6 °F 57.9 °F 42% 29.79 in 10.0 mi West 18.4 mph 26.5 mph 0.00 in   Mostly Cloudy
4:56 PM 83.8 °F 83.3 °F 57.9 °F 41% 29.77 in 10.0 mi West 16.1 mph 21.9 mph N/A   Clear
5:56 PM 83.8 °F 82.8 °F 55.9 °F 38% 29.76 in 10.0 mi WSW 18.4 mph 24.2 mph N/A   Partly Cloudy
6:56 PM 83.8 °F 82.8 °F 55.9 °F 38% 29.77 in 10.0 mi West 8.1 mph - N/A   Partly Cloudy
7:56 PM 80.6 °F 80.3 °F 53.6 °F 39% 29.76 in 10.0 mi West 4.6 mph - N/A   Clear
8:56 PM 74.8 °F - 50.0 °F 42% 29.81 in 10.0 mi Calm Calm - N/A   Clear
9:56 PM 68.9 °F - 48.9 °F 49% 29.83 in 10.0 mi Calm Calm - N/A   Clear
10:56 PM 66.2 °F - 46.4 °F 49% 29.80 in 10.0 mi Calm Calm - N/A   Clear
11:56 PM 59.9 °F - 50.0 °F 70% 29.83 in 10.0 mi Calm Calm - N/A   Mostly Cloudy